FREGAT R/B, 40316

Orbit data source: Space-Track

FREGAT R/B, 40316 is space debris in MEO originally from a launch on Sun, 30 Nov 2014 UTC launched from the Plesetsk Missile And Space Complex (PKMTR). Debris objects in space refer to the collection of defunct objects orbiting the Earth. Examples of debris include non-operational satellites, rocket bodies, and fragments generated from explosions, collisions, or faulty payload assembly.

Loading next visibility...
Identifier
40316, 2014-075B
Orbit
MEO
Country
Flag of CISCIS
Related business
Manufacturer
Lavochkin
Mission
Spacecraft
Bus & Motor
FREGAT, Unknown motor
Mass
1,000 kg wet, 1,000 kg dry
Launch date (UTC)
2014-11-30 (11 years ago)
Launch vehicle
Unknown
Launch site
Plesetsk Missile And Space Complex (PKMTR)
Object type
Payload
Rocket body
Debris
Shape & HBR
Cyl, 1.7 m
Radar Cross Section
8.354 m², Large (>1 m²)

Expand to show TLE details & history
Last TLE update: 7 hours ago

TLE from 7 hours ago
0 FREGAT R/B
1 40316U 14075B   26128.15813081  .00000023  00000-0  00000+0 0  9991
2 40316  63.5524 198.2898 0042576 137.2589 223.1428  2.08635584 87126
Epoch: 2026-05-08T03:47Z
TLE epoch observation values (Epoch: 2026-05-08T03:47:42.501Z)
Latitude
-0.00001°
Longitude
-84.6306°
Altitude
19,573.804 km
Speed
3.913 km/s
True Right ascension
13h 13m 09s
True Declination
0° 00' 00"
Sunlit
Object was in daylight at epoch
Visualization orbit readout
Latitude
Unknown
Longitude
Unknown
Altitude
Unknown
Speed
Unknown
Apparent Right ascension
Unknown
Apparent Declination
Unknown
Sunlit
N/A
Visualization observer readout
Local Sidereal Time
19:21:33
Azimuth
Unknown
Elevation
Unknown
Doppler factor
Unknown
Orbital elements
Apogee altitude
19,602.464 km
Perigee altitude
19,382.172 km
Semi-major axis
25,870.455 km
Eccentricity
0.00426
Inclination
63.5524°
RAAN
198.2898°
Arg. of periapsis
137.2589°
True anomaly
222.81047°
Mean anomaly
223.1428°
Eccentric anomaly
222.9765°
Mean motion
0.5216 °/min
Orbital period
690.18 mins
BSTAR
0
Loading maneuver chart data...
Computing Atmospheric mass density...
Loading historical data...
Loading historical data...
Loading historical data...
Loading historical data...
Loading historical data...
Loading historical data...
Loading historical data...
Other satellites on launch #75 in the year 2014 (2014-11-30 UTC)

Documentation

Showing up to 5 results
|